GW2953 Weather Reports


Display with metric or nautical units.
time (UTC)temp
F
wind
direction
speed
MPH
gust
MPH
rain 1hr
in
rain 24hr
in
rain mn
in
humidity
%
barometer
mb
20260505050558 53 200 9.0 17.0 0.00 0.00 0.00 93 1013.0
20260505041526 54 223 5.0 11.0 0.00 0.00 0.00 94 1012.4
20260505041023 54 229 11.0 14.0 0.00 0.00 0.00 93 1012.4
20260505040520 54 282 4.0 8.0 0.00 0.00 0.00 92 1012.5
20260505040018 54 264 4.0 9.0 0.00 0.00 0.00 92 1012.6
20260505035514 55 199 7.0 15.0 0.00 0.00 0.00 91 1012.4
20260505035011 55 242 8.0 11.0 0.00 0.00 0.00 91 1012.3
20260505034507 55 221 4.0 6.0 0.00 0.00 0.00 92 1012.2
20260505034004 54 168 2.0 7.0 0.00 0.00 0.00 92 1012.1
20260505033501 54 150 0.0 4.0 0.00 0.00 0.00 94 1012.0
20260505032959 54 210 2.0 5.0 0.00 0.00 0.00 94 1011.8
20260505032456 54 233 3.0 5.0 0.00 0.00 0.00 94 1011.6
20260505031953 54 248 3.0 6.0 0.00 0.00 0.00 92 1011.7
20260505031449 54 236 8.0 10.0 0.00 0.00 0.00 92 1011.5
20260505030946 54 205 6.0 7.0 0.00 0.00 0.00 92 1011.6
20260505030442 55 231 3.0 8.0 0.00 0.00 0.00 92 1011.6
20260505025938 54 298 4.0 8.0 0.00 0.00 0.00 93 1011.2
20260505025435 54 220 3.0 8.0 0.00 0.00 0.00 93 1011.2
20260505024934 55 264 7.0 11.0 0.00 0.00 0.00 93 1011.1
20260505024431 55 237 8.0 11.0 0.00 0.00 0.00 92 1011.3
20260505023928 55 224 9.0 10.0 0.00 0.00 0.00 93 1011.0
20260505023425 55 219 8.0 11.0 0.00 0.00 0.00 93 1011.5
20260505022922 55 266 5.0 5.0 0.00 0.00 0.00 92 1011.6
20260505022420 55 301 2.0 4.0 0.00 0.00 0.00 92 1011.7
20260505021917 55 279 6.0 9.0 0.00 0.00 0.00 92 1011.6
20260505021413 55 260 3.0 7.0 0.00 0.00 0.00 92 1011.5
20260505020909 55 243 5.0 12.0 0.00 0.00 0.00 92 1011.3
20260505020404 55 240 5.0 15.0 0.00 0.00 0.00 92 1011.1
20260505015901 55 268 8.0 14.0 0.00 0.00 0.00 91 1011.0
20260505015359 55 261 8.0 12.0 0.00 0.00 0.00 91 1010.8
20260505014856 55 258 5.0 11.0 0.00 0.00 0.00 91 1010.8
20260505014353 55 206 3.0 12.0 0.00 0.00 0.00 91 1011.0
20260505013849 55 208 9.0 10.0 0.00 0.00 0.00 90 1011.1
20260505013346 56 199 5.0 9.0 0.00 0.00 0.00 90 1011.0
20260505012845 56 226 7.0 8.0 0.00 0.00 0.00 90 1011.1
20260505012343 56 210 2.0 4.0 0.00 0.00 0.00 90 1011.0
20260505011838 56 187 4.0 9.0 0.00 0.00 0.00 90 1011.0
20260505011335 56 227 4.0 7.0 0.00 0.00 0.00 89 1011.1
20260505010831 56 149 2.0 5.0 0.00 0.00 0.00 89 1011.4
20260505010327 57 233 3.0 8.0 0.00 0.00 0.00 88 1011.5
20260505005824 57 186 3.0 7.0 0.00 0.00 0.00 88 1011.7
20260505005321 57 227 4.0 8.0 0.00 0.00 0.00 88 1011.5
20260505004818 57 303 2.0 3.0 0.00 0.00 0.00 87 1011.3
20260505004314 57 210 8.0 9.0 0.00 0.00 0.00 87 1011.3
20260505003812 57 228 7.0 8.0 0.00 0.00 0.00 86 1011.2
20260505003309 57 247 7.0 11.0 0.00 0.00 0.00 86 1011.2
20260505002805 57 292 2.0 9.0 0.00 0.00 0.00 86 1011.4
20260505002304 57 193 2.0 9.0 0.00 0.00 0.00 86 1011.5
20260505001800 57 197 5.0 9.0 0.00 0.00 0.00 85 1011.5
20260505001257 57 240 3.0 11.0 0.00 0.00 0.00 85 1011.8
20260505000754 57 296 5.0 8.0 0.00 0.00 0.00 85 1011.8
20260505000252 57 217 6.0 11.0 0.00 0.00 0.00 85 1011.6
20260504235748 57 228 6.0 8.0 0.00 0.00 0.00 85 1011.4
20260504235244 57 265 7.0 7.0 0.00 0.00 0.00 85 1011.5
20260504234742 57 251 4.0 9.0 0.00 0.00 0.00 85 1011.6
20260504234239 57 197 5.0 6.0 0.00 0.00 0.00 86 1011.3
20260504233736 57 212 3.0 11.0 0.00 0.00 0.00 85 1011.2
20260504233231 58 183 3.0 10.0 0.00 0.00 0.00 85 1011.5
20260504232729 58 190 5.0 10.0 0.00 0.00 0.00 85 1011.7
20260504232226 58 198 4.0 11.0 0.00 0.00 0.00 84 1011.6
20260504231722 58 214 4.0 9.0 0.00 0.00 0.00 84 1011.6
20260504231219 58 171 7.0 9.0 0.00 0.00 0.00 84 1011.5
20260504230715 58 218 7.0 10.0 0.00 0.00 0.00 83 1011.4
20260504230214 58 217 9.0 9.0 0.00 0.00 0.00 84 1011.5
20260504225712 58 306 6.0 9.0 0.00 0.00 0.00 84 1011.5
20260504225208 58 197 6.0 10.0 0.00 0.00 0.00 84 1011.4
20260504224705 58 219 6.0 8.0 0.00 0.00 0.00 84 1011.7
20260504224203 58 184 3.0 7.0 0.00 0.00 0.00 84 1011.6
20260504223659 58 241 4.0 9.0 0.00 0.00 0.00 85 1011.7
20260504223154 58 192 4.0 10.0 0.00 0.00 0.00 85 1011.5
20260504222652 58 212 7.0 10.0 0.00 0.00 0.00 84 1011.9
20260504222148 58 232 7.0 12.0 0.00 0.00 0.00 84 1011.9
20260504221646 58 209 5.0 10.0 0.00 0.00 0.00 83 1012.0
20260504221143 58 238 3.0 9.0 0.00 0.00 0.00 83 1011.9
20260504220639 58 273 5.0 13.0 0.00 0.00 0.00 84 1011.8
20260504220137 58 248 5.0 12.0 0.00 0.00 0.00 84 1011.8
20260504215633 59 277 4.0 9.0 0.00 0.00 0.00 83 1012.0
20260504215130 59 176 3.0 10.0 0.00 0.00 0.00 83 1011.8
20260504214626 58 324 3.0 8.0 0.00 0.00 0.00 83 1012.1
20260504214123 58 206 5.0 11.0 0.00 0.00 0.00 83 1012.1
20260504213619 59 302 8.0 12.0 0.00 0.00 0.00 82 1012.0
20260504213116 59 234 4.0 8.0 0.00 0.00 0.00 83 1012.2
20260504212612 58 190 2.0 8.0 0.00 0.00 0.00 84 1012.3
20260504212109 58 181 2.0 4.0 0.00 0.00 0.00 84 1012.4
20260504211606 58 208 9.0 10.0 0.00 0.00 0.00 84 1012.6
20260504211103 58 135 2.0 8.0 0.00 0.00 0.00 84 1012.5
20260504210601 58 331 0.0 11.0 0.00 0.00 0.00 84 1012.3
20260504210057 58 148 3.0 9.0 0.00 0.00 0.00 84 1012.5
20260504205555 58 178 7.0 9.0 0.00 0.00 0.00 84 1012.6
20260504205052 58 189 5.0 9.0 0.00 0.00 0.00 85 1012.5
20260504204550 58 205 3.0 7.0 0.00 0.00 0.00 84 1012.6
20260504204049 59 173 5.0 7.0 0.00 0.00 0.00 83 1012.9
20260504203547 59 198 5.0 8.0 0.00 0.00 0.00 83 1012.8
20260504203044 59 155 4.0 9.0 0.00 0.00 0.00 83 1012.9
20260504202539 59 177 7.0 11.0 0.00 0.00 0.00 83 1012.8
20260504202037 58 170 3.0 9.0 0.00 0.00 0.00 83 1012.9
20260504201533 58 178 7.0 11.0 0.00 0.00 0.00 83 1012.9
20260504201032 59 202 3.0 6.0 0.00 0.00 0.00 82 1013.0
20260504200527 59 331 3.0 8.0 0.00 0.00 0.00 82 1012.9
20260504200024 58 263 7.0 8.0 0.00 0.00 0.00 83 1013.0
20260504195520 59 169 3.0 8.0 0.00 0.00 0.00 86 1013.0
20260504195017 58 218 2.0 8.0 0.00 0.00 0.00 84 1013.1
20260504194514 57 236 7.0 10.0 0.00 0.00 0.00 84 1013.0
20260504194009 57 245 6.0 9.0 0.00 0.00 0.00 84 1013.1
20260504193506 57 168 3.0 6.0 0.00 0.00 0.00 86 1013.2
20260504193005 57 263 4.0 8.0 0.00 0.00 0.00 84 1013.2
20260504192502 57 276 4.0 7.0 0.00 0.00 0.00 86 1013.0
20260504192001 57 228 10.0 11.0 0.00 0.00 0.00 85 1013.0
20260504191458 58 260 5.0 8.0 0.00 0.00 0.00 85 1013.2
20260504190953 58 147 4.0 6.0 0.00 0.00 0.00 86 1013.1
20260504190449 57 250 3.0 6.0 0.00 0.00 0.00 85 1013.3
20260504185946 57 216 7.0 10.0 0.00 0.00 0.00 85 1013.5
20260504185443 56 164 3.0 5.0 0.00 0.00 0.00 86 1013.2
20260504184939 57 209 2.0 7.0 0.00 0.00 0.00 87 1013.4
20260504184435 57 255 5.0 9.0 0.00 0.00 0.00 86 1013.2
20260504183931 57 185 3.0 7.0 0.00 0.00 0.00 87 1013.2
20260504183429 57 165 1.0 10.0 0.00 0.00 0.00 87 1013.4
20260504182926 56 278 9.0 11.0 0.00 0.00 0.00 86 1013.5
20260504182423 57 174 5.0 13.0 0.00 0.00 0.00 86 1013.4
20260504181920 57 183 3.0 10.0 0.00 0.00 0.00 85 1013.3
20260504181417 57 175 4.0 12.0 0.00 0.00 0.00 86 1013.3
20260504180916 57 199 5.0 9.0 0.00 0.00 0.00 87 1013.3
20260504180414 56 232 4.0 11.0 0.00 0.00 0.00 87 1013.3
20260504175912 57 199 9.0 10.0 0.00 0.00 0.00 87 1013.2
20260504175409 56 177 3.0 6.0 0.00 0.00 0.00 87 1013.2
20260504174907 57 195 5.0 7.0 0.00 0.00 0.00 87 1013.1
20260504174404 56 198 3.0 10.0 0.00 0.00 0.00 88 1013.1
20260504173901 56 266 6.0 11.0 0.00 0.00 0.00 87 1013.2
20260504173357 57 194 4.0 8.0 0.00 0.00 0.00 87 1013.3
20260504172855 57 215 3.0 12.0 0.00 0.00 0.00 87 1013.0
20260504172351 57 210 5.0 10.0 0.00 0.00 0.00 87 1013.1
20260504171847 57 178 6.0 8.0 0.00 0.00 0.00 87 1013.4
20260504171345 56 162 4.0 8.0 0.00 0.00 0.00 88 1013.4
20260504170842 56 168 2.0 7.0 0.00 0.00 0.00 88 1013.2
20260504170338 56 336 1.0 6.0 0.00 0.00 0.00 88 1013.3
20260504160256 55 102 1.0 3.0 0.00 0.00 0.00 94 1013.1
20260504150722 53 41 1.0 2.0 0.00 0.00 0.00 96 1013.3
20260504150219 53 84 2.0 2.0 0.00 0.00 0.00 97 1013.3
20260504141148 53 298 1.0 4.0 0.00 0.00 0.00 96 1012.9
20260504140645 53 302 1.0 2.0 0.00 0.00 0.00 96 1013.0
20260504140140 53 55 0.0 2.0 0.00 0.00 0.00 95 1012.6
20260504130609 53 275 4.0 5.0 0.00 0.00 0.00 95 1012.2
20260504130105 53 275 2.0 5.0 0.00 0.00 0.00 95 1012.1
20260504110451 54 282 3.0 3.0 0.00 0.00 0.00 97 1012.0
20260504100413 53 317 2.0 2.0 0.00 0.00 0.00 99 1012.3
20260504081806 53 117 0.0 1.0 0.00 0.00 0.00 98 1012.5
20260504081303 53 44 0.0 2.0 0.00 0.00 0.00 98 1012.8
20260504080759 53 209 0.0 3.0 0.00 0.00 0.00 98 1012.9
20260504080255 53 104 2.0 3.0 0.00 0.00 0.00 98 1012.8
20260504070223 54 6 0.0 4.0 0.00 0.00 0.00 98 1011.9
20260504060144 54 71 3.0 4.0 0.05 0.17 0.17 97 1011.8